Lid_Strength_Index
1 0 0 0 0 0 1 1 1 1 1 2 1 1 1 1 0 3 4 4 4 7 6 5 5 6 7 7 10 10 10 9 9 12 13 13 14 13 14 12 14 14 15 16 17 18 19 8 9 13 10 8 8 8
1 1 1 0 0 0 1 1 1 1 1 1 2 2 1 1 1 1 5 3 3 6 6 4 4 3 4 5 6 7 8 9 9 10 10 11 13 12 13 16 10 14 12 14 13 15 10 8 9 7 7 8 7 7
1 1 1 1 1 1 1 1 1 1 1 1 2 2 1 1 1 1 5 4 5 7 8 9 7 4 4 4 3 8 7 6 7 7 9 10 13 10 14 14 12 10 9 12 12 9 9 8 7 6 6 7 7 6
1 1 1 1 1 1 1 1 1 1 1 2 2 2 2 2 2 2 4 5 5 8 11 10 6 8 5 5 5 5 6 7 7 6 8 10 12 9 12 11 12 10 9 11 11 9 8 8 7 7 6 6 7 6
1 1 1 1 1 1 1 1 1 1 1 2 2 2 2 2 2 3 3 4 4 9 11 10 7 7 7 8 7 7 7 8 9 9 9 11 9 9 9 10 12 9 10 12 12 9 9 9 7 6 6 7 7 7
2 1 1 1 1 1 1 1 1 1 1 2 2 2 2 2 3 6 9 6 4 5 10 13 8 8 7 7 8 8 8 9 9 10 10 9 7 10 14 14 10 8 7 7 9 6 7 6 6 5 6 7 7 7
2 1 1 1 1 1 1 1 1 1 1 1 2 2 2 3 5 8 9 6 5 5 10 13 12 8 7 7 7 8 8 9 10 10 11 11 10 10 14 15 11 8 8 7 5 6 8 7 8 7 6 7 6 6
2 2 1 1 1 1 1 1 1 1 1 2 2 2 3 3 4 7 5 5 5 8 9 13 12 10 9 9 8 8 11 10 10 11 10 11 10 11 16 12 10 9 8 8 6 5 6 6 5 6 6 6 7 7
2 2 2 1 2 2 2 1 1 1 2 2 2 3 5 6 8 7 4 4 5 8 13 13 14 14 7 9 8 8 8 11 8 11 10 11 13 15 12 11 9 7 8 7 6 6 6 6 6 6 6 6 7 7
2 2 2 2 2 2 2 1 1 2 2 3 6 8 9 8 4 4 7 9 10 10 12 14 13 14 10 9 9 9 9 12 14 12 10 12 15 11 10 7 7 6 6 6 8 8 7 7 7 6 7 6 6 6
2 2 2 2 2 2 2 1 1 2 4 7 9 10 7 5 5 8 11 12 12 15 14 13 13 13 9 12 11 9 11 13 15 12 14 15 15 10 7 7 6 6 5 6 5 5 5 6 6 6 6 5 5 5
2 2 3 2 2 2 2 2 2 3 6 5 5 5 7 8 9 10 11 10 11 12 11 12 11 11 9 8 10 9 11 11 14 10 14 15 11 8 7 7 6 5 5 5 5 5 5 5 5 5 5 5 5 4
3 3 3 2 2 2 2 2 2 2 3 5 8 9 10 9 12 13 14 12 11 8 8 8 9 7 7 7 9 10 12 13 9 13 15 12 8 7 7 6 6 5 5 5 6 5 5 6 5 5 5 4 4 4
3 3 3 3 3 2 2 2 2 3 5 7 9 12 11 11 10 10 10 10 7 7 7 8 8 9 9 10 9 12 10 10 14 15 14 10 8 8 7 7 8 8 7 7 6 6 6 6 6 5 4 3 4 5
3 3 3 3 3 3 2 2 2 5 5 8 7 12 11 8 8 8 8 8 8 7 8 9 9 9 10 10 9 10 12 15 13 14 10 8 7 7 9 9 10 10 10 9 9 8 7 7 7 7 6 5 4 4
2 3 4 3 3 2 3 3 3 4 5 6 7 9 8 9 9 9 9 10 8 8 7 8 9 10 11 11 12 13 13 15 12 9 7 6 7 7 8 8 9 9 9 9 9 9 9 9 9 8 8 8 7 7
3 6 3 3 3 3 3 4 5 5 6 7 8 8 9 10 10 10 9 9 8 8 9 9 12 12 9 12 12 11 12 10 8 8 8 7 7 7 8 9 9 8 8 8 9 9 9 8 8 9 9 9 8 8
6 5 3 3 3 4 4 5 5 6 8 8 9 8 8 8 9 8 8 7 9 10 9 10 10 12 13 14 14 12 10 9 8 8 9 8 8 8 8 9 9 9 9 9 8 8 8 8 9 9 8 8 8 8
5 4 3 3 3 5 6 6 6 8 8 8 7 8 8 8 7 7 6 6 7 9 10 10 12 13 13 11 11 11 11 10 10 8 10 9 9 9 9 9 9 9 9 9 9 9 9 9 9 9 8 8 9 8
3 3 2 2 3 6 7 8 6 7 9 8 8 8 8 9 8 7 6 6 8 9 11 12 11 10 9 10 11 11 11 10 11 10 10 10 9 9 9 9 9 9 9 8 8 8 8 8 8 8 8 8 9 9
3 3 3 4 4 6 7 8 8 8 8 8 8 8 8 7 8 8 8 7 8 9 10 10 9 9 10 11 12 12 11 11 11 11 11 12 11 10 10 9 9 9 10 10 10 10 10 10 9 8 8 8 9 9
5 2 5 4 5 6 7 7 8 8 7 7 6 6 8 8 9 7 8 8 9 8 8 9 9 10 11 10 11 11 11 10 10 10 10 10 12 11 11 11 10 10 10 11 11 11 11 10 9 8 8 8 9 9
4 4 5 5 7 9 9 7 8 8 9 9 8 9 8 8 7 7 10 10 9 8 8 8 9 10 11 11 10 10 11 11 11 12 11 11 11 11 11 11 11 10 11 11 10 11 10 10 9 9 9 9 9 10
3 6 7 8 8 10 7 8 8 9 8 9 10 12 10 8 7 9 9 9 8 7 8 9 10 11 11 11 12 12 11 11 11 11 12 11 12 12 11 11 11 10 10 10 10 10 10 10 9 9 9 10 10 10
9 9 9 13 8 8 9 9 9 9 10 9 11 11 9 8 10 11 11 9 8 6 8 9 10 11 12 12 12 12 11 11 12 12 12 12 11 11 11 11 11 11 10 10 10 10 10 9 9 9 9 9 10 10
11 9 10 10 9 9 9 10 10 10 9 10 10 8 8 9 10 11 10 9 7 6 6 8 10 11 12 12 12 12 11 11 11 11 11 12 11 11 12 12 12 11 10 10 9 9 9 9 9 9 9 9 9 10
11 9 8 7 8 8 9 8 8 9 10 11 9 9 9 12 12 10 8 8 6 6 6 6 9 10 11 12 12 12 12 12 11 11 11 11 11 11 11 11 12 11 10 9 8 8 9 9 10 10 10 10 9 9
7 7 9 8 8 8 9 9 9 10 9 9 9 10 11 10 10 8 7 6 5 8 10 10 10 10 11 11 11 12 12 12 12 12 12 11 11 11 11 10 10 9 9 8 8 8 8 9 9 9 10 10 10 9
8 7 7 8 8 8 8 9 9 9 8 8 9 10 9 8 7 7 6 5 6 10 10 11 11 11 12 12 12 12 12 12 11 12 13 13 13 11 11 11 10 10 10 9 8 8 8 9 9 9 9 9 9 9
7 7 8 8 8 9 8 8 9 8 8 8 8 8 8 7 6 5 6 9 9 10 10 10 11 11 12 12 12 12 11 12 12 12 13 12 12 11 11 10 10 10 10 9 9 8 8 8 8 8 8 8 8 8
7 8 8 7 8 8 7 8 7 7 7 8 8 9 8 7 6 6 6 7 9 10 10 11 11 11 11 12 12 12 12 11 11 10 10 11 11 10 10 9 9 8 8 8 8 8 8 8 9 9 8 8 8 8
7 8 8 9 8 7 7 8 8 8 8 8 8 8 7 7 8 7 9 10 10 10 9 10 11 11 10 10 10 10 10 10 10 9 8 9 9 8 8 9 8 7 7 7 7 8 8 8 8 8 8 8 7 7
7 8 8 7 8 8 7 7 8 8 8 9 8 7 7 7 8 7 8 9 9 9 9 9 9 9 9 9 9 9 9 9 8 8 8 8 8 8 8 8 8 7 7 7 7 7 7 7 8 8 8 8 8 7